Home   Weather   Detroit   Past weeks

Flag for USA Past Weather in Detroit, Michigan, USA — Yesterday and Last 2 Weeks

Now
76 °F

Sunny.


Feels Like: 78 °F
Forecast: 65 / 78 °F
Wind: 12 mph from Northeast

Location: Detroit City Airport

Current Time: Aug 31, 2016 at 7:34:04 PM

Latest Report: Aug 31, 2016 at 6:53 PM


Visibility: 10 mi

Pressure: 29.97 "Hg

Humidity: 52%

Dew Point: 57 °F

Location of DetroitLocation

Past Weather in Detroit — Graph

°F

Detroit Temperature Yesterday

Maximum temperature yesterday: 82 °F (at 4:53 PM)
Minimum temperature yesterday: 67 °F (at 5:53 AM)
Average temperature yesterday: 75 °F

High & Low Weather Summary for the Past Weeks

 TemperatureHumidityPressure
High86 °F (Aug 19, 2:53 PM)100% (Aug 17, 5:53 AM)30.28 "Hg (Aug 17, 5:53 AM)
Low59 °F (Aug 22, 5:53 AM)39% (Aug 22, 4:53 PM)29.59 "Hg (Aug 20, 10:53 PM)
Average74 °F77%30.04 "Hg
* Reported Aug 16 5:53 PM — Aug 31 5:53 PM, Detroit, Weather by CustomWeather, © 2016

Note: Actual official high and low records may vary slightly from our data, if they occured in-between our weather recording intervals... More about our weather records

Advertising

Detroit Weather History for the Previous 24 Hours

Scroll right to see more
 ConditionsComfort  
Time TempWeatherWind HumidityBarometerVisibility
5:53 PM
Wed, Aug 31
76 °FPassing clouds.10 mph58%29.96 "Hg10 mi
4:53 PM76 °FMore clouds than sun.14 mph60%29.97 "Hg10 mi
3:53 PM77 °FBroken clouds.14 mph64%29.96 "Hg10 mi
2:53 PM79 °FPartly sunny.12 mph65%29.96 "Hg10 mi
1:53 PM80 °FScattered clouds.10 mph64%29.96 "Hg10 mi
12:53 PM79 °FBroken clouds.7 mph74%29.97 "Hg10 mi
11:53 AM76 °FMostly cloudy.7 mph82%29.98 "Hg10 mi
10:53 AM74 °FMostly cloudy.5 mph88%29.98 "Hg9 mi
9:53 AM74 °FOvercast.3 mph88%29.98 "Hg10 mi
8:53 AM72 °FMostly cloudy.3 mph87%29.99 "Hg10 mi
7:53 AM71 °FPassing clouds.3 mph90%29.98 "Hg10 mi
6:53 AM71 °FPassing clouds.No wind96%29.98 "Hg10 mi
5:53 AM72 °FLight rain. Overcast.No wind93%29.97 "Hg10 mi
4:53 AM73 °FOvercast.3 mph88%29.97 "Hg10 mi
3:53 AM73 °FPassing clouds.3 mph84%29.98 "Hg10 mi
2:53 AM75 °FPassing clouds.No wind76%29.98 "Hg10 mi
1:53 AM75 °FPassing clouds.5 mph79%30.00 "Hg10 mi
12:53 AM75 °FClear.5 mph79%30.01 "Hg10 mi
11:53 PM
Tue, Aug 30
75 °FClear.5 mph74%30.02 "Hg10 mi
10:53 PM75 °FPassing clouds.3 mph74%30.03 "Hg10 mi
9:53 PM76 °FClear.No wind69%30.03 "Hg10 mi
8:53 PM76 °FSunny.5 mph67%30.03 "Hg10 mi
7:53 PM77 °FSunny.6 mph58%30.02 "Hg10 mi
Weather by CustomWeather, © 2016

See weather overviewHow to use our weather pages